Location: Seasalter
(51.3333°N, 1.0167°E)
Time: 19:18:23
(UTC+00:00)

Thor Agena Rocket - Pass Details

Date: 26 September 2023
Orbit: 757 x 806 km, 99.0° (Epoch: 08 December)

Event Time Altitude Azimuth Distance (km) Brightness Sun altitude
Rises 02:31:44 0° 18° (NNE) 3,308 7.7 -29.1°
Reaches altitude 10° 02:34:07 10° 24° (NNE) 2,380 6.8 -28.8°
Maximum altitude 02:39:17 54° 101° (ESE) 974 4.1 -28.2°
Enters shadow 02:40:03 49° 132° (SE) 1,027 4.1 -28.1°
